Regional Weather Roundup
Issued by NWS

Home | Current Version | Previous Version | Graphics & Text | Print | Product List | Glossary On
Versions: 1 2 3 4 5 6 7 8 9 10 11 12 13 14 15 16 17 18 19 20 21 22 23 24 25 26 27 28 29 30 31 32 33 34 35 36 37 38 39 40 41 42 43 44 45 46 47 48 49 50
000
ASUS43 KIND 220209
RWRIN

WEATHER ROUNDUP FOR INDIANA
NATIONAL WEATHER SERVICE INDIANAPOLIS IN
1000 PM EDT SUN SEP 21 2014

NOTE: "FAIR" INDICATES FEW OR NO CLOUDS BELOW 12,000 FEET WITH NO
SIGNIFICANT WEATHER AND/OR OBSTRUCTIONS TO VISIBILITY.

* - STATION DOES NOT REPORT WEATHER SUCH AS PRECIPITATION OR FOG.

+ - STATION NOT QUALITY CONTROLLED BY THE NATIONAL WEATHER SERVICE.
    USE DATA WITH CAUTION...ESPECIALLY DEWPOINT AND RELATIVE
    HUMIDITY OBSERVATIONS.

INZ001>003-010>013-019-020-220300-
NORTHWEST INDIANA

CITY           SKY/WX    TMP DP  RH WIND       PRES   REMARKS
KNOX *+        MOCLDY    55  49  79 N9        30.08R
LA PORTE +     PTCLDY    54  48  81 N15G21    30.09R
MICHIGAN CITY+ MOCLDY    54  46  76 N12       30.10R
MONTICELLO +   CLOUDY    56  52  85 NW3       30.07R
RENSSELAER +   CLOUDY    57  54  88 N5        30.10R
VALPARAISO     PTCLDY    55  49  80 NW5       30.09R

$$

LMZ046-743>745-220300-
SOUTHERN LAKE MICHIGAN

STATION/POSITION TIME  TEMP WIND        PRES
                       AIR  DIR/SP/G
                 (UTC) (F)  (DEG/KT/KT) (MB)
MICHIGAN CITY    0200   57  350/ 22/ 26   N/A

$$

INZ004-005-014>016-021>024-220300-
NORTH CENTRAL INDIANA

CITY           SKY/WX    TMP DP  RH WIND       PRES   REMARKS
GOSHEN         CLOUDY   N/A N/A N/A NW13      30.06R
LOGANSPORT +   CLOUDY    54  46  76 N9        30.08R
PERU/GRISSOM   MOCLDY    56  52  86 NW9       30.06R
ROCHESTER +    CLOUDY    57  50  77 NW8       30.07R
SOUTH BEND     CLOUDY    55  47  74 N14       30.08R
WARSAW +       MOCLDY    52  46  82 NW8       30.06R

$$

INZ006>009-017-018-025>027-220300-
NORTHEAST INDIANA

CITY           SKY/WX    TMP DP  RH WIND       PRES   REMARKS
ANGOLA *+      MOCLDY    54  48  82 N8        30.02R
FORT WAYNE     PTCLDY    54  48  80 NW12G23   30.04R
HUNTINGTON +   PTCLDY    53  48  84 NW3       30.04R

$$

INZ028-029-035-036-043>045-051>053-220300-
WEST CENTRAL INDIANA

CITY           SKY/WX    TMP DP  RH WIND       PRES   REMARKS
GREENCASTLE +  MOCLDY    57  50  77 CALM      30.08R
LAFAYETTE      PTCLDY    57  50  77 N6        30.07R
TERRE HAUTE    CLEAR     56  50  80 W5        30.08R

$$

INZ030>032-037>040-046>048-054>057-064-065-220300-
CENTRAL INDIANA

CITY           SKY/WX    TMP DP  RH WIND       PRES   REMARKS
CP ATTERBURY + CLEAR     57  48  72 NW3       30.06R
COLUMBUS       PTCLDY    55  50  82 N6        30.05R
FRANKFORT +    MOCLDY    56  51  83 N6        30.08R
INDIANAPOLIS   PTCLDY    57  49  74 N6        30.06R
-EAGLE CREEK   MOCLDY    59  50  72 N3        30.06R
KOKOMO *+      CLOUDY    55  48  76 NW9       30.07R
MARION +       CLOUDY    55  47  77 NW5       30.06R
MT COMFORT *+  CLEAR     54  46  76 NW5       30.06R
SHELBYVILLE    CLEAR     56  49  77 N6        30.05R
ZIONSVILLE +   PTCLDY    55  48  78 NW5       30.07R

$$

INZ033-034-041-042-049-050-058-059-220300-
EAST CENTRAL INDIANA

CITY           SKY/WX    TMP DP  RH WIND       PRES   REMARKS
MUNCIE         CLEAR     52  48  86 NW7       30.05R

$$

INZ060-061-067>069-081>083-085>088-220300-
SOUTHWEST INDIANA

CITY           SKY/WX    TMP DP  RH WIND       PRES   REMARKS
EVANSVILLE     CLEAR     65  50  58 N9        30.07R
WASHINGTON +   CLEAR     55  51  87 NW7       30.07R

$$

INZ062-063-066-070>080-084-089>092-220300-
SOUTH CENTRAL AND SOUTHEAST INDIANA

CITY           SKY/WX    TMP DP  RH WIND       PRES   REMARKS
BLOOMINGTON    CLEAR     57  49  74 CALM      30.07R

$$



USA.gov is the U.S. government's official web portal to all federal, state and local government web resources and services.